Location: Les Coudrans
(46.1056°N, 1.1158°W)
Time: 16:11:59
(UTC+00:00)

Cosmos 1666 - Pass Details

Date: 03 March 2021
Orbit: 497 x 518 km, 82.5° (Epoch: 17 April)

Event Time Altitude Azimuth Distance (km) Brightness Sun altitude
Rises 20:03:03 0° 202° (SSW) 2,573 6.3 -23.0°
Reaches altitude 10° 20:05:13 10° 209° (SSW) 1,695 5.4 -23.4°
Maximum altitude 20:08:47 45° 283° (WNW) 695 3.7 -24.0°
Drops below altitude 10° 20:12:24 10° 357° (N) 1,716 5.6 -24.6°
Sets 20:14:36 0° 4° (N) 2,608 6.4 -24.9°
